Preview of NWS' New Version of Forecast
This preview is not operational and should not be used for support decisions.

Regional Weather Roundup (RWR)

Issued by National Weather Service (NWS)

                            
000
ASUS45 KABQ 221801
RWRNM 
NEW MEXICO REGIONAL WEATHER ROUNDUP
NATIONAL WEATHER SERVICE ALBUQUERQUE NM
1200 PM MDT THU AUG 22 2019

NOTE: "FAIR" MEANS FEW OR NO CLOUDS BELOW 12,000 FEET AGL WITH NO
       SIGNIFICANT WEATHER OR OBSTRUCTIONS TO VISION.

      THIS PRODUCT IS RELEASED AS TWO VERSIONS.  ONE VERSION NEAR
      THE TOP OF THE HOUR CONTAINING PRELIMINARY DATA FROM ALBUQUERQUE
      AND OTHER STATIONS.  A FINAL VERSION WITH ADDITIONAL DATA IS 
      ISSUED ABOUT 10 MINUTES AFTER THE HOUR.
 
NMZ501-503-504-510>518-221900-
NORTHWEST PLATEAU/NORTHCENTRAL MOUNTAINS
  
CITY           SKY/WX    TMP DP  RH WIND       PRES   REMARKS
FARMINGTON     FAIR      84  43  23 VRB5      30.08F                  
6HR MIN TEMP:  63; 6HR MAX TEMP:  84;                                

LOS ALAMOS       N/A     75  46  35 SE8G16    30.24F                  
SANTA FE       FAIR      77  48  35 VRB6      30.19F                  
6HR MIN TEMP:  53; 6HR MAX TEMP:  77;                                

TAOS             N/A     75  48  38 W8        30.25                   
ANGEL FIRE     FAIR      71  41  33 W8G18     30.32F                  

$$
NMZ402-403-502-505>509-221900-
WESTCENTRAL MOUNTAINS/SOUTHWEST MOUNTAINS
  
CITY           SKY/WX    TMP DP  RH WIND       PRES   REMARKS
GALLUP         FAIR      86  32  14 SW16G23   30.17F                  
6HR MIN TEMP:  54; 6HR MAX TEMP:  86;                                

GRANTS         FAIR      82  42  24 E7        30.20S                  
SILVER CITY    FAIR      80  53  38 CALM      30.16S                  

$$
NMZ407-409-411-412-221900-
SOUTHERN DESERTS
  
CITY           SKY/WX    TMP DP  RH WIND       PRES   REMARKS
DEMING         FAIR      83  57  41 CALM      30.08F                  
6HR MIN TEMP:  62; 6HR MAX TEMP:  83;                                

LAS CRUCES     FAIR      86  52  30 E5        30.10S                  
HOLLOMAN AFB   FAIR      85  54  33 CALM      30.08F                  
ALAMOGORDO     FAIR      84  54  34 CALM      30.07F                  
T OR C         FAIR      85  53  33 S13       30.10F                  
6HR MIN TEMP:  64; 6HR MAX TEMP:  85;                                


$$
NMZ519>523-221900-
CENTRAL VALLEYS/CENTRAL HIGHLANDS
  
CITY           SKY/WX    TMP DP  RH WIND       PRES   REMARKS
ALBUQUERQUE    FAIR      79  51  37 SW6       30.13F                  
6HR MIN TEMP:  62; 6HR MAX TEMP:  81;                                

DOUBLE EAGLE   MOSUNNY   79  52  38 VRB6      30.17F                  
CLINES CORNERS FAIR      75  50  41 W14G21    30.25F                  
6HR MIN TEMP:  52; 6HR MAX TEMP:  76;                                

BELEN          FAIR      81  48  32 E6        30.12F                  
6HR MIN TEMP:  56; 6HR MAX TEMP:  81;                                

SOCORRO        FAIR      83  51  32 SE13G18   30.10F                  
6HR MIN TEMP:  60; 6HR MAX TEMP:  83;                                


$$
NMZ524>526-539-540-221900-
SOUTHCENTRAL MOUNTAINS
  
CITY           SKY/WX    TMP DP  RH WIND       PRES   REMARKS
RUIDOSO        FAIR      73  50  43 S3        30.26F                  

$$
NMZ527>531-221900-
NORTHEAST HIGHLANDS/NORTHEAST PLAINS
  
CITY           SKY/WX    TMP DP  RH WIND       PRES   REMARKS
LAS VEGAS      FAIR      79  48  33 S17       30.20F                  
6HR MIN TEMP:  45; 6HR MAX TEMP:  79;                                

RATON          FAIR      77  49  37 SE6       30.15F                  
6HR MIN TEMP:  46; 6HR MAX TEMP:  77;                                

CLAYTON        FAIR      83  52  34 S14G22    30.08F                  
6HR MIN TEMP:  54; 6HR MAX TEMP:  84;                                


$$
NMZ532>537-221900-
EASTCENTRAL PLAINS
  
CITY           SKY/WX    TMP DP  RH WIND       PRES   REMARKS
SANTA ROSA     FAIR      84  58  40 S9        30.08F                  
TUCUMCARI      FAIR      86  60  41 SW14G20   30.03F                  
6HR MIN TEMP:  63; 6HR MAX TEMP:  86;                                

CANNON AFB     NOT AVBL                                               
CLOVIS AIRPORT FAIR      82  60  47 S12       30.09F                  

$$
NMZ028-029-538-221900-
SOUTHEAST PLAINS
  
CITY           SKY/WX    TMP DP  RH WIND       PRES   REMARKS
ROSWELL        FAIR      88  58  36 SE8       30.03F                  
6HR MIN TEMP:  70; 6HR MAX TEMP:  88;                                

ARTESIA        FAIR      82  59  44 VRB6G15   30.05F                  
CARLSBAD       FAIR      86  59  39 VRB3      30.01F                  
6HR MIN TEMP:  75; 6HR MAX TEMP:  86;                                

HOBBS          MOSUNNY   88  55  33 E10       30.04F                  


$$